This is the latest recevied weather packets stored in our database for station/object KB3KBR-WX. If no packets are shown the sender has not sent any weather packets the latest 10 day(s).
| Time | Temp. | Humidity | Pressure | Rain* | Wind** | Luminosity | Snow |
|---|---|---|---|---|---|---|---|
| 1777490423 | 12.78° C | 94% | 1002.9 hPa | 8.64 mm | - | - | - |
| 1777490124 | 12.78° C | 94% | 1002.9 hPa | 9.14 mm | - | - | - |
| 1777489793 | 12.78° C | 94% | 1002.9 hPa | 9.65 mm | - | - | - |
| 1777489463 | 12.78° C | 94% | 1002.8 hPa | 10.41 mm | - | - | - |
| 1777489162 | 12.78° C | 94% | 1002.9 hPa | 11.94 mm | - | - | - |
| 1777488863 | 12.78° C | 94% | 1003 hPa | 12.19 mm | - | - | - |
| 1777488533 | 12.78° C | 94% | 1003 hPa | 12.7 mm | - | - | - |
| 1777488203 | 12.78° C | 94% | 1003.1 hPa | 12.19 mm | - | - | - |
| 1777487872 | 12.78° C | 94% | 1003.1 hPa | 11.68 mm | - | - | - |
| 1777487573 | 12.78° C | 94% | 1003.1 hPa | 11.18 mm | - | - | - |
| 1777486943 | 13.33° C | 94% | 1003.1 hPa | 7.11 mm | - | - | - |
| 1777486313 | 13.33° C | 94% | 1002.9 hPa | 5.84 mm | - | - | - |
| 1777485982 | 13.33° C | 94% | 1002.8 hPa | 5.33 mm | - | - | - |
| 1777485653 | 13.33° C | 94% | 1003.1 hPa | 3.3 mm | - | - | - |
| 1777485023 | 13.33° C | 93% | 1003.4 hPa | 2.03 mm | - | - | - |
| 1777484693 | 13.33° C | 94% | 1003.7 hPa | 1.78 mm | - | - | - |
| 1777484392 | 13.33° C | 93% | 1003.9 hPa | 1.52 mm | - | - | - |
| 1777484063 | 13.33° C | 93% | 1004 hPa | 1.27 mm | - | - | - |
| 1777483763 | 13.33° C | 93% | 1004.2 hPa | 1.27 mm | - | - | - |
| 1777483432 | 13.33° C | 93% | 1004.4 hPa | 1.52 mm | - | - | - |
| 1777483132 | 13.33° C | 93% | 1004.5 hPa | 2.54 mm | - | - | - |
| 1777482833 | 13.33° C | 93% | 1004.5 hPa | 3.3 mm | - | - | - |
| 1777482532 | 13.89° C | 93% | 1004.6 hPa | 3.81 mm | - | - | - |
| 1777482203 | 13.89° C | 92% | 1004.5 hPa | 4.32 mm | - | - | - |
| 1777481873 | 13.89° C | 93% | 1004.7 hPa | 5.33 mm | - | - | - |
* Rain latest hour (hover to see other rain measurements)
** Current wind speed in m/s (hover to see current wind gust speed)